This demonstration page uses our WeatherBlox Daily Observations layout. Learn more.

Left ArrowRight Arrow

41.12389, -100.76542

Hourly Observations for September 22, 2021

Temp ( °F °C ) Dew Point ( °F °C ) Humidity (%) Winds ( mph kmh ) Pressure ( in mb ) Visibility ( mi km ) Precip ( " mm )
12:53 am 00:53 Clear 41 5 36 2.2 82 82 E 3 6 30.41 1030 10 16 N/A
1:53 am 01:53 Clear 39 3.9 35 1.7 86 86 N N/A 30.40 1030 10 16 N/A
2:53 am 02:53 Clear 39 3.9 35 1.7 86 86 N N/A 30.40 1030 10 16 N/A
3:53 am 03:53 Clear 36 2.2 33 0.6 89 89 N N/A 30.40 1029 10 16 N/A
4:53 am 04:53 Clear 36 2.2 33 0.6 89 89 N N/A 30.39 1029 10 16 N/A
5:53 am 05:53 Clear 36 2.2 33 0.6 89 89 N N/A 30.38 1029 10 16 N/A
6:53 am 06:53 Clear 36 2.2 32 undefined 86 86 N N/A 30.38 1029 10 16 N/A
7:53 am 07:53 Sunny 35 1.7 32 undefined 89 89 N N/A 30.39 1029 10 16 N/A
8:53 am 08:53 Sunny 44 6.7 39 3.9 83 83 N N/A 30.37 1029 10 16 N/A
9:53 am 09:53 Sunny 53 11.7 42 5.6 66 66 ESE 3 6 30.35 1028 10 16 N/A
10:53 am 10:53 Sunny 64 17.8 44 6.7 48 48 VRB 3 6 30.32 1027 10 16 N/A
11:53 am 11:53 Sunny 71 21.7 37 2.8 29 29 SSW 12 19 30.28 1025 10 16 N/A
12:53 pm 12:53 Sunny 74 23.3 36 2.2 25 25 SSW 14 22 30.24 1024 10 16 N/A
1:53 pm 13:53 Sunny 77 25 37 2.8 24 24 S 12 19 30.19 1022 10 16 N/A
2:53 pm 14:53 Sunny 79 26.1 35 1.7 20 20 S 14 22 30.15 1021 10 16 N/A
3:53 pm 15:53 Sunny 80 26.7 35 1.7 20 20 SW 13 20 30.12 1020 10 16 N/A
4:53 pm 16:53 Sunny 81 27.2 34 1.1 18 18 SSW 7 11 30.09 1019 10 16 N/A
5:53 pm 17:53 Sunny 81 27.2 35 1.7 19 19 SSW 7 11 30.07 1018 10 16 N/A
6:53 pm 18:53 Sunny 77 25 40 4.4 26 26 S 5 7 30.06 1018 10 16 N/A
7:53 pm 19:53 Clear 62 16.7 48 8.9 60 60 ESE 3 6 30.08 1019 10 16 N/A
8:53 pm 20:53 Clear 55 12.8 42 5.6 62 62 ESE 7 11 30.08 1019 10 16 N/A
9:53 pm 21:53 Clear 52 11.1 42 5.6 69 69 ESE 7 11 30.07 1018 10 16 N/A
10:53 pm 22:53 Clear 49 9.4 41 5 74 74 ESE 9 15 30.06 1018 10 16 N/A
11:53 pm 23:53 Clear 50 10 40 4.4 68 68 ESE 6 9 30.04 1017 10 16 N/A

Powered by AerisWeather